Weather History for Conroe, TX

Change the Weather History Date:

Saturday, January 19, 2013

  Actual Average Record
Temperature  
Mean Temperature 47 °F -  
Max Temperature 64 °F 60 °F 80 °F (2000)
Min Temperature 30 °F 39 °F 26 °F (2003)
Degree Days  
Heating Degree Days 18    
Moisture  
Dew Point 37 °F    
Average Humidity 85    
Maximum Humidity 100    
Minimum Humidity 42    
Precipitation  
Precipitation 0.00 in - - ()
Sea Level Pressure  
Sea Level Pressure 30.29 in    
Wind  
Wind Speed 1 mph (South)    
Max Wind Speed 9 mph    
Max Gust Speed -    
Visibility 7 miles    
Events Fog    
Averages and records for this station are not official NWS values.
T = Trace of Precipitation, MM = Missing Value Source: NWS Daily Summary

Daily Weather History Graph

Daily Weather History Graph

Search for Another Location

Airport:

Trip Planner

Search our weather history database for the weather conditions in past years. The results will help you decide how hot, cold, wet, or windy it might be!

Date:

Astronomy

Jan. 19, 2013 Rise Set
Actual Time 7:18 AM CST 5:47 PM CST
Civil Twilight 6:52 AM CST 6:12 PM CST
Nautical Twilight 6:23 AM CST 6:42 PM CST
Astronomical Twilight 5:54 AM CST 7:11 PM CST
Moon 12:09 PM CST 12:59 AM CST
Length of Visible Light 11h 20m
Length of Day
10h 29m
First Quarter, 57% of the Moon is Illuminated
Jan 19
First Quarter
Jan 26
Full
Feb 3
Last Quarter
Feb 10
New
Feb 17
First Quarter

Hourly Weather History & Observations

Time (CST) Temp. Windchill Dew Point Humidity Pressure Visibility Wind Dir Wind Speed Gust Speed Precip Events Conditions
12:53 AM 32.0 °F - 30.0 °F 92% 30.38 in 10.0 mi Calm Calm - N/A   Clear
1:53 AM 30.9 °F - 28.9 °F 92% 30.37 in 9.0 mi Calm Calm - N/A   Clear
2:53 AM 30.0 °F - 28.0 °F 92% 30.35 in 10.0 mi Calm Calm - N/A   Clear
3:53 AM 30.0 °F - 28.0 °F 92% 30.34 in 8.0 mi Calm Calm - N/A   Clear
4:53 AM 30.0 °F - 28.9 °F 96% 30.31 in 7.0 mi Calm Calm - N/A   Clear
5:40 AM 30.2 °F - 28.4 °F 93% 30.30 in 8.0 mi Calm Calm - N/A   Scattered Clouds
5:50 AM 30.2 °F - 28.4 °F 93% 30.30 in 8.0 mi Calm Calm - N/A   Mostly Cloudy
5:53 AM 30.0 °F - 28.9 °F 96% 30.30 in 9.0 mi Calm Calm - N/A   Mostly Cloudy
6:02 AM 30.2 °F - 30.2 °F 100% 30.30 in 1.8 mi Calm Calm - N/A   Overcast
6:05 AM 30.2 °F - 30.2 °F 100% 30.30 in 0.8 mi Calm Calm - N/A   Mist
6:16 AM 30.2 °F - 30.2 °F 100% 30.30 in 0.2 mi Calm Calm - N/A Fog Light Freezing Fog
6:53 AM 30.9 °F - 30.9 °F 100% 30.30 in 0.2 mi Calm Calm - N/A Fog Light Freezing Fog
7:18 AM 30.2 °F - 30.2 °F 100% 30.31 in 0.5 mi Calm Calm - N/A Fog Light Freezing Fog
7:28 AM 30.2 °F - 30.2 °F 100% 30.31 in 1.8 mi Calm Calm - N/A   Mostly Cloudy
7:32 AM 30.2 °F - 30.2 °F 100% 30.31 in 2.0 mi Calm Calm - N/A   Scattered Clouds
7:53 AM 30.9 °F - 30.9 °F 100% 30.32 in 2.0 mi Calm Calm - N/A   Clear
8:37 AM 39.2 °F - 39.2 °F 100% 30.32 in 5.0 mi Calm Calm - N/A   Clear
8:53 AM 41.0 °F - 41.0 °F 100% 30.33 in 5.0 mi Calm Calm - N/A   Clear
9:53 AM 53.1 °F - 46.0 °F 77% 30.34 in 10.0 mi SSE 6.9 mph - N/A   Clear
10:53 AM 57.9 °F - 45.0 °F 62% 30.35 in 10.0 mi South 8.1 mph - N/A   Clear
11:53 AM 59.0 °F - 44.1 °F 58% 30.31 in 10.0 mi South 6.9 mph - N/A   Clear
12:53 PM 62.1 °F - 44.1 °F 52% 30.26 in 10.0 mi SSW 4.6 mph - N/A   Clear
1:53 PM 64.9 °F - 42.1 °F 43% 30.23 in 10.0 mi SSW 5.8 mph - N/A   Clear
2:53 PM 64.0 °F - 42.1 °F 45% 30.21 in 10.0 mi Variable 5.8 mph - N/A   Clear
3:53 PM 64.9 °F - 41.0 °F 42% 30.20 in 10.0 mi South 9.2 mph - N/A   Clear
4:53 PM 63.0 °F - 39.9 °F 43% 30.20 in 10.0 mi South 4.6 mph - N/A   Clear
5:53 PM 54.0 °F - 46.9 °F 77% 30.21 in 10.0 mi Calm Calm - N/A   Clear
6:53 PM 48.0 °F - 45.0 °F 89% 30.22 in 10.0 mi Calm Calm - N/A   Clear
7:53 PM 51.1 °F - 45.0 °F 80% 30.24 in 10.0 mi SE 5.8 mph - N/A   Clear
8:53 PM 50.0 °F - 46.9 °F 89% 30.25 in 10.0 mi SE 5.8 mph - N/A   Clear
9:53 PM 45.0 °F - 44.1 °F 97% 30.25 in 7.0 mi Calm Calm - N/A   Clear
10:53 PM 43.0 °F - 41.0 °F 93% 30.26 in 9.0 mi Calm Calm - N/A   Clear
11:28 PM 42.8 °F 41.1 °F 41.0 °F 93% 30.25 in 8.0 mi SSE 3.5 mph - N/A   Scattered Clouds
11:34 PM 41.0 °F - 39.2 °F 93% 30.25 in 6.0 mi Calm Calm - N/A   Mostly Cloudy
11:53 PM 39.9 °F - 39.0 °F 97% 30.26 in 6.0 mi Calm Calm - N/A   Scattered Clouds